Theta_e
280 282 283 284 284 285 287 288 289 291 293 296 298 299 300 300 300 298 296 295 295 294 295 297 299 300 301 302 302 305 313 318 318 318 319 317 317 317 318 318 317 315
280 281 282 282 282 283 284 285 287 289 292 295 298 299 300 300 300 299 297 295 295 295 295 296 299 300 300 302 302 303 308 315 317 317 318 318 316 316 317 317 317 315
279 279 279 280 280 281 282 282 284 285 288 291 295 298 299 299 299 299 297 296 295 295 295 296 298 299 299 301 303 303 305 311 316 317 318 317 316 316 316 316 316 315
278 278 278 279 279 280 281 281 282 283 284 286 290 295 298 299 299 299 298 296 295 295 295 295 296 297 298 299 302 303 303 306 313 317 317 317 316 316 316 316 315 314
277 277 278 278 279 279 280 281 282 283 284 284 286 290 295 298 298 298 298 296 295 295 295 294 295 296 297 298 299 303 304 304 309 315 317 316 316 315 315 315 314 314
276 276 277 278 278 278 279 280 281 283 284 285 286 286 288 292 296 298 298 296 295 295 294 294 294 295 296 297 298 300 303 304 306 312 316 316 315 315 314 315 314 313
275 275 275 277 277 278 278 279 280 282 283 284 285 285 285 287 291 296 297 296 295 294 294 294 294 294 295 296 297 299 302 303 304 309 315 316 315 314 314 314 314 313
275 274 274 275 276 276 277 278 279 281 282 282 283 284 285 286 287 291 295 296 295 294 294 294 294 294 294 295 297 298 301 303 303 306 312 316 315 314 313 313 313 312
274 274 274 275 275 276 277 278 279 279 280 281 282 283 284 284 285 287 291 294 295 294 294 294 294 294 294 294 295 297 300 302 303 304 310 315 315 314 313 313 313 312
274 274 274 275 275 275 276 277 278 278 279 280 281 281 282 282 283 284 286 290 293 294 294 294 294 294 294 294 294 295 298 301 303 303 307 313 315 314 313 313 312 312
273 274 274 274 274 274 275 276 277 277 278 279 279 280 280 281 282 283 284 287 291 293 294 294 294 294 294 294 294 294 296 299 302 303 305 311 314 314 313 313 312 312
273 273 273 273 274 274 274 275 276 276 277 277 278 279 279 280 281 282 283 285 287 290 292 293 293 293 294 294 294 294 295 297 301 303 305 310 314 314 313 313 312 312
273 273 272 273 273 273 273 274 274 275 275 276 277 278 278 279 280 281 282 283 284 288 290 292 292 293 293 294 293 293 294 296 299 303 305 309 314 314 313 313 313 312
272 272 272 272 272 272 272 273 273 273 274 275 276 277 278 278 279 279 280 281 283 286 289 290 291 292 293 293 293 293 294 295 299 302 305 309 313 314 314 313 313 313
272 272 272 271 271 271 271 271 272 272 273 273 274 276 277 277 278 278 279 280 281 284 288 289 291 292 293 293 293 293 293 294 297 301 305 309 314 315 314 314 313 313
271 271 271 271 271 271 270 271 271 271 272 272 273 275 276 277 277 278 279 280 281 283 286 288 290 291 292 293 293 293 293 293 296 299 304 309 314 314 314 314 314 313
271 270 270 270 270 270 270 270 270 271 271 272 273 274 275 276 277 278 279 280 281 282 284 286 288 290 291 292 293 293 293 293 294 297 301 308 313 314 313 314 313 313
270 270 270 270 270 270 270 270 270 270 271 272 273 274 276 277 277 278 280 280 281 282 284 286 288 289 291 292 292 293 293 292 293 295 299 305 312 314 313 313 313 313
269 269 269 269 269 269 269 269 270 270 271 272 273 274 276 277 278 279 280 281 281 282 283 285 287 289 290 291 292 292 292 292 292 294 297 302 309 313 313 313 313 313
269 268 268 268 268 268 268 269 269 270 270 271 272 273 275 277 279 279 280 281 281 281 282 284 287 288 289 290 291 292 292 292 292 294 297 301 307 312 313 313 313 313
268 268 267 267 267 268 268 268 269 269 270 270 271 272 275 277 279 280 280 281 281 282 283 284 286 288 289 290 291 291 292 292 292 293 296 300 306 311 313 313 313 312
267 267 267 267 267 267 268 268 268 269 269 270 271 272 274 277 279 280 281 281 282 283 284 284 285 287 288 289 290 291 292 292 292 293 296 300 305 310 312 312 312 312
266 266 266 266 266 267 267 268 268 269 269 270 271 272 274 277 279 280 281 282 283 284 286 286 286 287 288 289 290 291 292 292 292 294 297 301 305 309 311 311 311 311
266 266 265 266 266 267 267 268 268 269 269 270 271 272 273 276 279 281 282 282 283 285 287 288 288 288 288 289 290 291 292 292 294 296 299 302 305 308 309 310 310 310
265 265 265 265 266 266 267 268 268 269 270 270 271 272 273 276 279 281 282 283 284 285 287 288 289 289 290 291 292 292 293 294 295 297 300 302 305 307 308 308 309 309
264 264 265 265 266 267 268 268 269 269 270 271 271 272 273 276 279 281 282 283 283 285 287 290 291 291 292 293 294 294 295 296 297 298 301 303 305 306 306 306 307 308
Wind_Speed
39 38 37 38 37 35 34 34 35 37 39 37 32 29 26 24 23 24 24 22 20 20 21 23 26 27 27 28 33 38 35 40 46 45 46 48 47 47 50 50 49 47
39 36 37 39 39 38 38 37 38 37 38 41 37 31 28 24 23 24 25 24 20 18 19 20 23 24 25 26 29 35 37 34 44 46 45 48 47 46 50 50 48 47
36 36 38 40 39 40 41 42 44 42 40 42 38 33 29 25 24 25 26 25 20 17 17 18 20 21 21 22 25 30 35 33 35 44 44 47 47 45 49 51 48 48
36 37 38 38 37 39 39 39 42 44 42 43 42 36 30 26 24 25 27 26 21 16 15 16 18 20 19 19 21 26 30 34 32 39 41 41 45 46 47 49 48 47
37 37 37 36 35 38 39 37 38 39 40 41 42 39 33 28 27 27 27 26 21 16 14 16 17 18 20 20 20 23 26 31 33 34 40 38 41 44 44 47 48 46
35 35 37 36 35 35 37 38 38 37 36 36 37 39 38 33 29 29 28 25 22 17 13 16 18 18 20 22 21 23 23 26 33 32 38 40 41 44 43 44 47 46
34 34 37 37 35 34 35 36 37 36 34 34 35 37 37 36 32 31 31 27 23 19 15 16 19 18 19 22 22 24 24 23 29 33 34 40 40 43 44 44 47 46
35 34 36 36 34 35 35 34 35 34 34 34 34 34 33 32 33 34 34 31 25 22 18 16 18 19 18 20 21 23 25 24 25 32 33 37 39 41 45 46 47 47
35 34 34 35 33 33 34 33 33 33 34 33 33 33 32 31 31 34 36 33 28 25 21 18 18 19 19 19 20 21 25 26 24 30 33 35 39 41 46 48 46 46
35 33 33 34 32 31 32 33 33 34 33 32 31 31 33 34 33 34 36 35 31 27 24 21 19 19 20 20 21 21 24 27 26 29 34 34 38 40 44 47 46 45
34 34 33 33 33 32 32 33 33 33 33 33 32 32 32 33 34 34 35 34 33 31 27 24 20 19 21 21 22 23 25 27 27 28 35 37 40 41 42 46 46 46
35 35 33 33 33 32 32 32 33 33 34 35 34 33 33 32 30 32 34 33 33 33 31 28 24 22 22 22 23 25 26 29 28 28 36 39 40 42 44 47 46 46
36 36 34 33 32 32 32 32 33 34 35 36 36 35 35 33 29 30 35 35 33 34 33 31 28 25 24 23 24 25 27 29 29 28 35 40 41 43 46 49 49 49
37 36 35 34 33 33 33 33 33 34 35 36 36 37 38 37 32 31 35 37 34 33 33 32 30 27 25 24 24 25 26 29 29 29 33 39 41 45 48 49 49 51
39 36 35 35 34 34 33 33 33 33 34 35 37 39 41 41 38 34 35 37 36 34 33 32 30 28 26 25 24 24 25 28 29 29 32 37 41 44 47 50 50 51
40 39 36 35 35 34 34 34 33 33 33 34 36 39 41 42 40 36 34 35 35 34 33 32 31 29 28 27 27 26 26 29 30 29 32 35 40 42 43 48 50 50
39 39 37 36 35 35 34 33 33 33 33 33 33 35 39 41 41 37 33 33 34 34 34 34 33 32 31 29 29 29 28 29 31 30 32 33 37 41 41 44 48 48
38 38 36 34 33 33 33 33 33 32 32 32 32 32 35 38 38 36 33 33 34 36 36 35 34 34 33 31 31 32 31 31 32 30 30 32 33 41 43 43 45 46
37 38 36 34 33 33 34 34 33 31 30 30 31 31 32 34 36 36 34 32 33 35 35 35 34 34 34 34 32 32 34 33 33 31 30 31 31 38 43 44 45 45
37 37 37 36 35 35 34 33 32 31 30 31 31 31 31 32 34 35 33 32 34 36 36 35 34 34 35 35 33 33 35 35 34 32 31 32 33 37 43 44 46 47
38 39 39 37 35 34 33 33 33 32 31 31 30 30 30 31 32 32 31 32 33 35 35 35 35 35 34 35 34 34 35 35 34 33 31 31 34 38 45 46 47 49
39 39 38 38 36 34 32 32 32 32 30 29 29 29 29 29 30 30 30 31 33 33 34 34 35 35 35 36 36 36 35 34 33 33 31 30 32 37 44 46 47 48
38 37 38 39 37 34 33 31 31 30 29 27 26 27 28 28 28 30 31 32 31 31 32 33 34 36 36 37 37 37 35 34 33 31 30 29 31 35 40 43 46 47
38 38 39 38 36 35 34 33 31 30 27 26 25 25 27 28 28 29 31 32 31 31 32 33 34 35 36 36 37 37 35 34 33 30 28 28 30 33 36 40 43 47
37 38 38 39 37 36 35 33 32 30 27 25 25 25 26 28 27 26 28 31 32 32 34 36 36 34 33 33 34 35 34 34 32 28 26 27 28 30 31 35 40 45
37 38 39 39 38 39 40 38 34 30 27 24 23 24 26 27 27 27 27 31 34 34 34 35 34 30 29 31 33 33 34 34 32 28 26 26 28 29 28 29 35 41
Wind_Direction
316 310 304 305 306 302 297 296 298 299 297 290 279 272 269 266 272 282 291 299 310 314 308 301 297 293 288 282 288 288 260 218 204 203 200 197 199 195 191 192 191 190
312 310 311 311 310 309 306 303 301 301 301 295 284 274 271 266 268 278 287 294 302 311 312 307 300 295 293 284 280 286 280 241 208 202 202 198 198 196 191 191 191 189
310 309 310 309 308 308 307 305 304 304 306 304 294 280 269 266 268 274 283 289 293 303 314 311 303 299 298 292 281 279 284 268 223 203 202 199 195 194 191 190 190 189
310 308 307 305 306 307 307 306 303 302 303 306 306 297 279 266 266 272 276 282 284 290 307 313 308 305 303 298 288 279 281 281 249 211 202 201 195 192 190 188 188 189
310 308 305 303 304 306 307 306 304 302 300 301 306 309 300 278 264 266 271 273 275 280 295 308 310 310 309 307 298 285 279 285 273 229 204 201 198 193 190 186 185 187
310 308 305 304 304 304 305 305 305 303 301 300 302 308 312 303 278 262 262 266 268 270 282 300 307 310 312 313 308 295 281 281 282 252 211 199 197 194 190 186 185 186
309 308 306 305 306 304 303 304 305 303 303 304 304 304 310 314 302 276 262 261 263 265 273 291 302 307 312 315 311 300 286 277 282 269 227 200 195 193 189 187 186 185
308 307 305 304 305 305 302 302 302 303 305 306 305 304 305 310 312 299 279 266 260 261 269 281 294 302 308 312 310 301 290 278 278 275 244 206 194 192 188 187 187 185
307 306 304 303 302 302 301 300 299 302 305 304 303 303 302 302 308 308 297 281 266 260 266 273 283 295 302 304 305 301 293 282 274 273 255 216 194 192 189 187 187 186
307 306 304 302 301 300 299 299 300 300 301 302 303 302 301 300 299 302 302 295 281 269 269 273 276 287 296 299 301 300 294 285 275 272 262 227 197 192 191 187 186 186
306 306 303 301 299 298 298 297 298 300 300 301 303 301 300 300 297 295 297 298 292 282 276 277 277 282 290 294 298 300 298 288 275 270 264 236 203 192 190 187 186 185
305 304 302 301 298 296 296 296 296 297 298 299 299 299 300 300 298 293 291 292 292 289 284 281 280 282 285 289 294 297 299 292 277 268 263 241 208 191 189 188 186 185
305 303 302 299 296 295 295 295 295 294 295 296 296 295 296 297 298 294 289 288 289 288 285 281 280 280 281 285 290 294 297 293 280 269 262 242 211 192 189 189 187 185
304 302 300 297 294 293 293 293 293 292 292 293 293 291 291 292 294 293 288 285 284 284 282 280 277 277 279 282 285 289 294 291 281 271 262 241 212 194 190 189 188 187
306 302 297 296 293 291 291 291 290 289 289 289 288 287 286 286 288 288 286 283 279 277 277 277 274 273 274 278 280 283 289 290 283 275 265 242 212 194 190 189 189 189
307 304 298 295 294 291 289 289 287 285 285 285 284 282 281 282 283 283 282 280 277 273 270 270 270 270 271 273 276 278 282 288 285 278 270 246 213 193 189 188 189 191
306 304 299 296 295 292 289 288 286 284 283 281 281 279 277 278 279 278 277 277 275 271 267 264 263 265 268 269 272 275 277 283 284 279 273 254 217 193 187 188 188 191
307 303 300 299 298 294 291 289 287 284 281 279 278 276 274 274 274 273 273 273 273 270 265 261 259 260 263 263 267 271 273 278 282 279 274 262 226 196 188 187 187 190
306 304 300 299 299 297 294 291 287 283 281 280 280 279 275 271 269 269 269 269 270 269 264 260 257 256 258 259 262 267 269 273 279 278 273 266 238 202 189 186 186 187
305 304 300 297 297 296 294 291 287 283 281 280 280 279 275 270 266 266 266 265 266 266 263 260 256 254 255 257 257 261 265 268 275 276 271 267 246 210 191 188 188 187
305 303 299 296 296 294 292 290 286 281 279 279 277 275 273 270 265 262 262 264 265 264 261 258 255 252 252 254 254 257 261 264 271 274 270 265 249 216 194 190 191 189
307 304 299 296 295 293 290 288 285 280 277 275 274 273 273 270 265 263 262 264 265 263 258 255 254 251 249 251 252 254 258 260 266 269 265 260 247 217 194 189 191 190
303 302 299 296 295 293 290 287 284 281 278 275 272 272 272 269 264 262 263 263 265 263 257 254 254 252 249 248 249 250 252 254 259 262 259 253 241 216 193 187 190 190
304 301 299 297 293 291 288 285 282 280 278 275 272 270 271 270 266 262 262 263 264 264 260 256 254 253 249 246 246 246 246 248 252 254 251 245 233 214 195 186 187 189
304 301 299 297 292 288 285 281 278 277 275 271 268 267 269 270 269 266 266 267 265 265 263 255 250 251 249 245 244 244 243 245 248 247 243 234 222 209 196 187 186 189
306 301 297 292 287 288 289 285 277 274 272 267 263 265 265 265 265 265 266 266 266 266 260 248 244 247 249 249 248 247 245 245 244 240 232 222 211 202 194 187 186 189